COSMOS 2287 (GLONASS)

Satellite information

Favourite Embed

Satellite Type and Status

PAYLOADIN ORBIT

Key statistics

Satellite COSMOS 2287 (GLONASS) at a glance.

Uptime

11447

Days in orbit

Revolutions

≈ 2.1

Per day

Orbit

MEO

Medium Earth Orbit

Inclination

65.4

Latest

Satellite identification and parameters

Extended collection of information and parameters for COSMOS 2287 (GLONASS).

Object identification

Identified? True

Debris? False

Object name: COSMOS 2287 (GLONASS)

International designator: 1994-050A

Object number (NORAD): 23203

Object ID (CCSDS): 23203

Country: COMMONWEALTH OF INDEPENDENT STATES (CIS)

Current information (Y/N): Y

RCS size: LARGE

Orbital parameters

Period: 675.735 minutes

Inclination: 65.4151 deg

SMA: 25508.071 km

Apoapsis: 19162.045 km

Periapsis: 19097.828 km

RAAN: 208.2807 deg

Eccentricy: 0.00125877

Argument of periapsis: 24.1422 deg

Mean anomaly: 153.5866 deg

Mean motion: 2.13101411 rev/day

Mean motion (dot): 0.00000044 rev/day2

B* drag term: 0.0 1/REarth

Two-line elements (TLE)

Creation date: Dec. 12, 2025, 10:14 a.m.

Reference frame: TEME

Reference center: EARTH

Epoch: Dec. 12, 2025, 2:46 a.m. UTC

TLE line 0: 0 COSMOS 2287 (GLONASS)

TLE line 1: 1 23203U 94050A 25346.11592624 .00000044 00000-0 00000-0 0 9996

TLE line 2: 2 23203 65.4151 208.2807 0012588 24.1422 153.5866 2.13101411243861

Live tracking on map

Real-time ground track for satellite COSMOS 2287 (GLONASS).

In-orbit conjunctions

There are no conjunctions computed for COSMOS 2287 (GLONASS), at the moment. Check back to stay up to date, as we update our databases every day.

Go to all conjunctions

Associated space launch

GLONASS navigation satellites

COSMOS 2287 (GLONASS) was lifted into orbit during the mission ‘Proton | Uragan 57 to 59’, on board a Proton space rocket.

The launch took place on Aug. 11, 1994, 3:27 p.m. from 81/23 (81L).

For more information about the launch, click the button.

Launch to space Proton | Uragan 57 to 59
Proton | Uragan 57 to 59

Agency: N/A

Status: Launch Successful

Launch date: Aug. 11, 1994, 3:27 p.m. UTC

Rocket: Proton

Launch pad: 81/23 (81L)

Location: Baikonur Cosmodrome, Republic of Kazakhstan

...

Latest news about this satellite

There are no fresh news available about this satellite. Check back as we update our databases every day.


Newsletter sign-up

Weekly statistics, charts and insights to help you stay on top of the space industry.